{"data":{"norad_id":68553,"epoch":"2026-09-19T05:37:53.552640Z","epoch_age_seconds":154329,"freshness":"FRESH","line1":"1 68553U 26070M   26262.23464760  .00021718  00000+0  65178-3 0  9990","line2":"2 68553  53.1590 179.5910 0001605  98.6789 261.4395 15.34412517 26240","mean_motion":15.34412517,"eccentricity":0.0001605,"inclination_deg":53.159,"raan_deg":179.591,"arg_perigee_deg":98.6789,"mean_anomaly_deg":261.4395,"bstar":0.00065178,"rev_number":2624,"period_min":93.84699251642,"perigee_km":461.56808841069,"apogee_km":463.76398618566,"semimajor_km":6840.8030372982,"source":"CELESTRAK","updated_at":"2026-09-20T09:00:43.934583Z"}}